date,time,SUV Intensity [MED/Hr],UV Index,Daily total [MED],Since Last [MED]
24/01/2022,00:03:50,0.000,0.0,0.0,0.0
24/01/2022,00:04:50,0.000,0.0,0.0,0.0
24/01/2022,00:05:49,-0.001,0.0,0.0,0.0
24/01/2022,00:06:50,0.000,0.0,0.0,0.0
24/01/2022,00:07:49,0.000,0.0,0.0,0.0
24/01/2022,00:08:50,-0.001,0.0,0.0,0.0
24/01/2022,00:09:58,-0.000,0.0,0.0,0.0
24/01/2022,00:10:50,-0.001,0.0,0.0,0.0
24/01/2022,00:11:49,0.000,0.0,0.0,0.0
24/01/2022,00:12:50,-0.000,0.0,0.0,0.0
24/01/2022,00:13:58,-0.000,0.0,0.0,0.0
24/01/2022,00:14:49,-0.000,0.0,0.0,0.0
24/01/2022,00:15:49,-0.001,0.0,0.0,0.0
24/01/2022,00:16:49,0.000,0.0,0.0,0.0
24/01/2022,00:17:49,0.000,0.0,0.0,0.0
24/01/2022,00:18:50,0.000,0.0,0.0,0.0
24/01/2022,00:19:49,0.000,0.0,0.0,0.0
24/01/2022,00:20:50,-0.000,0.0,0.0,0.0
24/01/2022,00:21:50,0.001,0.0,0.0,0.0
24/01/2022,00:22:49,-0.001,0.0,0.0,0.0
24/01/2022,00:23:58,0.000,0.0,0.0,0.0
24/01/2022,00:24:49,0.000,0.0,0.0,0.0
24/01/2022,00:25:50,0.001,0.0,0.0,0.0
24/01/2022,00:26:49,-0.000,0.0,0.0,0.0
24/01/2022,00:27:51,0.000,0.0,0.0,0.0
24/01/2022,00:28:50,0.000,0.0,0.0,0.0
24/01/2022,00:29:49,-0.000,0.0,0.0,0.0
24/01/2022,00:30:49,0.000,0.0,0.0,0.0
24/01/2022,00:31:58,0.000,0.0,0.0,0.0
24/01/2022,00:32:50,0.000,0.0,0.0,0.0
24/01/2022,00:33:50,0.000,0.0,0.0,0.0
24/01/2022,00:34:50,0.000,0.0,0.0,0.0
24/01/2022,00:35:49,-0.001,0.0,0.0,0.0
24/01/2022,00:36:50,-0.001,0.0,0.0,0.0
24/01/2022,00:37:49,-0.000,0.0,0.0,0.0
24/01/2022,00:38:49,0.000,0.0,0.0,0.0
24/01/2022,00:39:50,0.000,0.0,0.0,0.0
24/01/2022,00:40:50,0.000,0.0,0.0,0.0
24/01/2022,00:41:58,-0.001,0.0,0.0,0.0
24/01/2022,00:42:50,0.000,0.0,0.0,0.0
24/01/2022,00:43:50,0.000,0.0,0.0,0.0
24/01/2022,00:44:50,0.000,0.0,0.0,0.0
24/01/2022,00:45:50,0.000,0.0,0.0,0.0
24/01/2022,00:46:49,0.000,0.0,0.0,0.0
24/01/2022,00:47:50,0.000,0.0,0.0,0.0
24/01/2022,00:49:50,0.000,0.0,0.0,0.0
24/01/2022,00:50:50,-0.001,0.0,0.0,0.0
24/01/2022,00:51:50,0.000,0.0,0.0,0.0
24/01/2022,00:52:58,0.000,0.0,0.0,0.0
24/01/2022,00:53:50,0.000,0.0,0.0,0.0
24/01/2022,00:54:51,-0.001,0.0,0.0,0.0
24/01/2022,00:55:50,0.000,0.0,0.0,0.0
24/01/2022,00:56:49,0.001,0.0,0.0,0.0
24/01/2022,00:57:50,0.000,0.0,0.0,0.0
24/01/2022,00:58:50,-0.000,0.0,0.0,0.0
24/01/2022,00:59:57,0.000,0.0,0.0,0.0
24/01/2022,01:00:50,0.000,0.0,0.0,0.0
24/01/2022,01:01:50,0.001,0.0,0.0,0.0
24/01/2022,01:02:50,0.000,0.0,0.0,0.0
24/01/2022,01:03:50,0.000,0.0,0.0,0.0
24/01/2022,01:04:50,0.000,0.0,0.0,0.0
24/01/2022,01:05:50,0.000,0.0,0.0,0.0
24/01/2022,01:06:50,0.000,0.0,0.0,0.0
24/01/2022,01:07:50,0.000,0.0,0.0,0.0
24/01/2022,01:08:49,-0.001,0.0,0.0,0.0
24/01/2022,01:09:49,0.000,0.0,0.0,0.0
24/01/2022,01:10:50,0.000,0.0,0.0,0.0
24/01/2022,01:11:49,0.001,0.0,0.0,0.0
24/01/2022,01:12:59,-0.001,0.0,0.0,0.0
24/01/2022,01:13:58,0.001,0.0,0.0,0.0
24/01/2022,01:14:49,0.000,0.0,0.0,0.0
24/01/2022,01:15:50,0.000,0.0,0.0,0.0
24/01/2022,01:16:49,0.001,0.0,0.0,0.0
24/01/2022,01:17:58,-0.001,0.0,0.0,0.0
24/01/2022,01:18:49,0.000,0.0,0.0,0.0
24/01/2022,01:19:50,-0.000,0.0,0.0,0.0
24/01/2022,01:20:50,0.000,0.0,0.0,0.0
24/01/2022,01:21:50,0.000,0.0,0.0,0.0
24/01/2022,01:22:51,0.000,0.0,0.0,0.0
24/01/2022,01:23:50,0.000,0.0,0.0,0.0
24/01/2022,01:24:52,0.000,0.0,0.0,0.0
24/01/2022,01:25:50,-0.001,0.0,0.0,0.0
24/01/2022,01:26:51,0.000,0.0,0.0,0.0
24/01/2022,01:27:49,0.001,0.0,0.0,0.0
24/01/2022,01:28:59,-0.001,0.0,0.0,0.0
24/01/2022,01:29:50,0.000,0.0,0.0,0.0
24/01/2022,01:30:50,-0.001,0.0,0.0,0.0
24/01/2022,01:31:50,-0.001,0.0,0.0,0.0
24/01/2022,01:32:49,0.000,0.0,0.0,0.0
24/01/2022,01:33:50,0.000,0.0,0.0,0.0
24/01/2022,01:34:50,-0.001,0.0,0.0,0.0
24/01/2022,01:35:51,0.000,0.0,0.0,0.0
24/01/2022,01:36:50,0.000,0.0,0.0,0.0
24/01/2022,01:37:50,-0.001,0.0,0.0,0.0
24/01/2022,01:38:59,0.000,0.0,0.0,0.0
24/01/2022,01:39:50,0.000,0.0,0.0,0.0
24/01/2022,01:40:50,-0.001,0.0,0.0,0.0
24/01/2022,01:41:50,0.000,0.0,0.0,0.0
24/01/2022,01:42:49,0.000,0.0,0.0,0.0
24/01/2022,01:43:49,0.001,0.0,0.0,0.0
24/01/2022,01:44:50,0.000,0.0,0.0,0.0
24/01/2022,01:45:50,0.000,0.0,0.0,0.0
24/01/2022,01:46:49,-0.000,0.0,0.0,0.0
24/01/2022,01:47:50,-0.001,0.0,0.0,0.0
24/01/2022,01:48:49,0.001,0.0,0.0,0.0
24/01/2022,01:49:49,0.000,0.0,0.0,0.0
24/01/2022,01:50:50,0.000,0.0,0.0,0.0
24/01/2022,01:51:50,0.000,0.0,0.0,0.0
24/01/2022,01:52:50,-0.001,0.0,0.0,0.0
24/01/2022,01:53:50,0.000,0.0,0.0,0.0
24/01/2022,01:54:49,0.000,0.0,0.0,0.0
24/01/2022,01:55:49,0.000,0.0,0.0,0.0
24/01/2022,01:56:50,0.000,0.0,0.0,0.0
24/01/2022,01:57:50,0.000,0.0,0.0,0.0
24/01/2022,01:58:49,0.000,0.0,0.0,0.0
24/01/2022,01:59:50,0.000,0.0,0.0,0.0
24/01/2022,02:00:58,0.000,0.0,0.0,0.0
24/01/2022,02:01:50,0.001,0.0,0.0,0.0
24/01/2022,02:02:51,0.000,0.0,0.0,0.0
24/01/2022,02:03:50,0.000,0.0,0.0,0.0
24/01/2022,02:04:50,0.001,0.0,0.0,0.0
24/01/2022,02:05:51,-0.001,0.0,0.0,0.0
24/01/2022,02:07:06,0.001,0.0,0.0,0.0
24/01/2022,02:08:51,-0.001,0.0,0.0,0.0
24/01/2022,02:09:50,0.000,0.0,0.0,0.0
24/01/2022,02:10:58,-0.001,0.0,0.0,0.0
24/01/2022,02:11:50,0.000,0.0,0.0,0.0
24/01/2022,02:12:50,0.001,0.0,0.0,0.0
24/01/2022,02:13:50,0.000,0.0,0.0,0.0
24/01/2022,02:14:50,-0.001,0.0,0.0,0.0
24/01/2022,02:15:49,-0.000,0.0,0.0,0.0
24/01/2022,02:16:50,-0.000,0.0,0.0,0.0
24/01/2022,02:17:49,0.000,0.0,0.0,0.0
24/01/2022,02:18:58,-0.000,0.0,0.0,0.0
24/01/2022,02:19:50,0.000,0.0,0.0,0.0
24/01/2022,02:20:50,0.001,0.0,0.0,0.0
24/01/2022,02:21:50,-0.001,0.0,0.0,0.0
24/01/2022,02:22:50,-0.000,0.0,0.0,0.0
24/01/2022,02:23:50,0.000,0.0,0.0,0.0
24/01/2022,02:24:50,0.000,0.0,0.0,0.0
24/01/2022,02:25:50,0.000,0.0,0.0,0.0
24/01/2022,02:26:50,0.001,0.0,0.0,0.0
24/01/2022,02:27:50,0.000,0.0,0.0,0.0
24/01/2022,02:28:58,0.000,0.0,0.0,0.0
24/01/2022,02:29:50,-0.001,0.0,0.0,0.0
24/01/2022,02:30:51,0.000,0.0,0.0,0.0
24/01/2022,02:31:50,0.000,0.0,0.0,0.0
24/01/2022,02:32:50,-0.000,0.0,0.0,0.0
24/01/2022,02:33:50,-0.000,0.0,0.0,0.0
24/01/2022,02:34:50,-0.000,0.0,0.0,0.0
24/01/2022,02:35:50,0.000,0.0,0.0,0.0
24/01/2022,02:36:50,-0.001,0.0,0.0,0.0
24/01/2022,02:37:50,-0.001,0.0,0.0,0.0
24/01/2022,02:38:50,0.000,0.0,0.0,0.0
24/01/2022,02:39:59,-0.000,0.0,0.0,0.0
24/01/2022,02:40:49,0.000,0.0,0.0,0.0
24/01/2022,02:41:50,0.000,0.0,0.0,0.0
24/01/2022,02:42:50,-0.001,0.0,0.0,0.0
24/01/2022,02:43:50,0.000,0.0,0.0,0.0
24/01/2022,02:44:50,0.000,0.0,0.0,0.0
24/01/2022,02:45:50,0.001,0.0,0.0,0.0
24/01/2022,02:46:58,0.001,0.0,0.0,0.0
24/01/2022,02:47:50,0.001,0.0,0.0,0.0
24/01/2022,02:48:50,0.000,0.0,0.0,0.0
24/01/2022,02:49:58,0.000,0.0,0.0,0.0
24/01/2022,02:50:50,0.000,0.0,0.0,0.0
24/01/2022,02:51:50,-0.001,0.0,0.0,0.0
24/01/2022,02:52:50,0.001,0.0,0.0,0.0
24/01/2022,02:53:58,0.000,0.0,0.0,0.0
24/01/2022,02:54:50,0.000,0.0,0.0,0.0
24/01/2022,02:55:50,-0.001,0.0,0.0,0.0
24/01/2022,02:56:50,0.001,0.0,0.0,0.0
24/01/2022,02:57:58,0.000,0.0,0.0,0.0
24/01/2022,02:58:50,0.000,0.0,0.0,0.0
24/01/2022,02:59:50,0.000,0.0,0.0,0.0
24/01/2022,03:00:49,0.000,0.0,0.0,0.0
24/01/2022,03:01:50,0.000,0.0,0.0,0.0
24/01/2022,03:02:49,0.000,0.0,0.0,0.0
24/01/2022,03:03:49,0.000,0.0,0.0,0.0
24/01/2022,03:04:51,-0.001,0.0,0.0,0.0
24/01/2022,03:06:43,-0.001,0.0,0.0,0.0
24/01/2022,03:07:59,-0.000,0.0,0.0,0.0
24/01/2022,03:08:49,0.000,0.0,0.0,0.0
24/01/2022,03:09:50,-0.001,0.0,0.0,0.0
24/01/2022,03:10:58,0.000,0.0,0.0,0.0
24/01/2022,03:11:49,-0.001,0.0,0.0,0.0
24/01/2022,03:12:50,0.000,0.0,0.0,0.0
24/01/2022,03:13:52,-0.001,0.0,0.0,0.0
24/01/2022,03:14:50,-0.001,0.0,0.0,0.0
24/01/2022,03:15:50,-0.001,0.0,0.0,0.0
24/01/2022,03:16:50,0.000,0.0,0.0,0.0
24/01/2022,03:17:50,0.000,0.0,0.0,0.0
24/01/2022,03:18:59,0.000,0.0,0.0,0.0
24/01/2022,03:19:48,0.001,0.0,0.0,0.0
24/01/2022,03:20:50,0.000,0.0,0.0,0.0
24/01/2022,03:21:50,0.000,0.0,0.0,0.0
24/01/2022,03:22:50,-0.001,0.0,0.0,0.0
24/01/2022,03:23:50,-0.001,0.0,0.0,0.0
24/01/2022,03:24:50,0.000,0.0,0.0,0.0
24/01/2022,03:25:49,-0.001,0.0,0.0,0.0
24/01/2022,03:26:50,0.000,0.0,0.0,0.0
24/01/2022,03:27:50,0.001,0.0,0.0,0.0
24/01/2022,03:28:58,0.000,0.0,0.0,0.0
24/01/2022,03:29:58,0.000,0.0,0.0,0.0
24/01/2022,03:30:50,0.000,0.0,0.0,0.0
24/01/2022,03:31:50,0.001,0.0,0.0,0.0
24/01/2022,03:32:50,0.000,0.0,0.0,0.0
24/01/2022,03:33:50,-0.000,0.0,0.0,0.0
24/01/2022,03:34:50,-0.001,0.0,0.0,0.0
24/01/2022,03:35:51,-0.001,0.0,0.0,0.0
24/01/2022,03:36:50,-0.000,0.0,0.0,0.0
24/01/2022,03:37:50,-0.000,0.0,0.0,0.0
24/01/2022,03:38:50,0.000,0.0,0.0,0.0
24/01/2022,03:39:50,0.001,0.0,0.0,0.0
24/01/2022,03:40:50,-0.001,0.0,0.0,0.0
24/01/2022,03:41:50,0.000,0.0,0.0,0.0
24/01/2022,03:42:49,-0.000,0.0,0.0,0.0
24/01/2022,03:43:58,0.000,0.0,0.0,0.0
24/01/2022,03:44:50,-0.000,0.0,0.0,0.0
24/01/2022,03:45:50,0.000,0.0,0.0,0.0
24/01/2022,03:46:50,-0.000,0.0,0.0,0.0
24/01/2022,03:47:50,-0.001,0.0,0.0,0.0
24/01/2022,03:48:50,0.000,0.0,0.0,0.0
24/01/2022,03:49:50,-0.000,0.0,0.0,0.0
24/01/2022,03:50:50,-0.000,0.0,0.0,0.0
24/01/2022,03:51:50,-0.000,0.0,0.0,0.0
24/01/2022,03:52:50,0.001,0.0,0.0,0.0
24/01/2022,03:53:50,0.000,0.0,0.0,0.0
24/01/2022,03:54:50,-0.000,0.0,0.0,0.0
24/01/2022,03:55:50,0.000,0.0,0.0,0.0
24/01/2022,03:56:50,0.000,0.0,0.0,0.0
24/01/2022,03:57:50,-0.000,0.0,0.0,0.0
24/01/2022,03:58:50,-0.000,0.0,0.0,0.0
24/01/2022,03:59:50,0.000,0.0,0.0,0.0
24/01/2022,04:00:58,-0.000,0.0,0.0,0.0
24/01/2022,04:02:43,-0.001,0.0,0.0,0.0
24/01/2022,04:03:50,0.001,0.0,0.0,0.0
24/01/2022,04:04:50,-0.000,0.0,0.0,0.0
24/01/2022,04:05:50,-0.001,0.0,0.0,0.0
24/01/2022,04:06:49,-0.000,0.0,0.0,0.0
24/01/2022,04:07:50,-0.001,0.0,0.0,0.0
24/01/2022,04:08:58,0.000,0.0,0.0,0.0
24/01/2022,04:09:43,-0.000,0.0,0.0,0.0
24/01/2022,04:10:50,-0.000,0.0,0.0,0.0
24/01/2022,04:11:51,0.000,0.0,0.0,0.0
24/01/2022,04:12:50,0.000,0.0,0.0,0.0
24/01/2022,04:13:49,-0.000,0.0,0.0,0.0
24/01/2022,04:14:50,0.000,0.0,0.0,0.0
24/01/2022,04:15:50,-0.000,0.0,0.0,0.0
24/01/2022,04:16:50,0.000,0.0,0.0,0.0
24/01/2022,04:17:50,-0.000,0.0,0.0,0.0
24/01/2022,04:18:50,-0.000,0.0,0.0,0.0
24/01/2022,04:19:50,0.000,0.0,0.0,0.0
24/01/2022,04:20:51,0.000,0.0,0.0,0.0
24/01/2022,04:21:50,0.001,0.0,0.0,0.0
24/01/2022,04:22:50,0.001,0.0,0.0,0.0
24/01/2022,04:23:51,0.000,0.0,0.0,0.0
24/01/2022,04:24:50,-0.001,0.0,0.0,0.0
24/01/2022,04:25:50,-0.000,0.0,0.0,0.0
24/01/2022,04:26:58,-0.000,0.0,0.0,0.0
24/01/2022,04:27:50,0.000,0.0,0.0,0.0
24/01/2022,04:28:50,-0.000,0.0,0.0,0.0
24/01/2022,04:29:51,-0.000,0.0,0.0,0.0
24/01/2022,04:30:50,-0.000,0.0,0.0,0.0
24/01/2022,04:31:50,0.001,0.0,0.0,0.0
24/01/2022,04:32:50,-0.000,0.0,0.0,0.0
24/01/2022,04:34:14,-0.000,0.0,0.0,0.0
24/01/2022,04:35:51,-0.000,0.0,0.0,0.0
24/01/2022,04:36:58,-0.000,0.0,0.0,0.0
24/01/2022,04:37:50,-0.000,0.0,0.0,0.0
24/01/2022,04:38:59,0.001,0.0,0.0,0.0
24/01/2022,04:39:49,-0.000,0.0,0.0,0.0
24/01/2022,04:40:50,0.000,0.0,0.0,0.0
24/01/2022,04:41:50,-0.000,0.0,0.0,0.0
24/01/2022,04:42:50,-0.000,0.0,0.0,0.0
24/01/2022,04:43:50,-0.000,0.0,0.0,0.0
24/01/2022,04:44:50,0.000,0.0,0.0,0.0
24/01/2022,04:45:50,-0.000,0.0,0.0,0.0
24/01/2022,04:46:50,0.000,0.0,0.0,0.0
24/01/2022,04:47:51,-0.001,0.0,0.0,0.0
24/01/2022,04:48:51,-0.000,0.0,0.0,0.0
24/01/2022,04:49:51,-0.000,0.0,0.0,0.0
24/01/2022,04:50:50,-0.000,0.0,0.0,0.0
24/01/2022,04:51:59,-0.000,0.0,0.0,0.0
24/01/2022,04:52:50,0.000,0.0,0.0,0.0
24/01/2022,04:53:51,0.001,0.0,0.0,0.0
24/01/2022,04:54:59,0.000,0.0,0.0,0.0
24/01/2022,04:55:50,0.000,0.0,0.0,0.0
24/01/2022,04:56:50,0.000,0.0,0.0,0.0
24/01/2022,04:57:50,-0.000,0.0,0.0,0.0
24/01/2022,04:58:51,-0.000,0.0,0.0,0.0
24/01/2022,04:59:50,-0.000,0.0,0.0,0.0
24/01/2022,05:00:50,-0.000,0.0,0.0,0.0
24/01/2022,05:01:50,-0.000,0.0,0.0,0.0
24/01/2022,05:02:59,-0.000,0.0,0.0,0.0
24/01/2022,05:03:49,0.000,0.0,0.0,0.0
24/01/2022,05:04:50,-0.001,0.0,0.0,0.0
24/01/2022,05:05:50,-0.000,0.0,0.0,0.0
24/01/2022,05:06:50,-0.000,0.0,0.0,0.0
24/01/2022,05:07:51,0.000,0.0,0.0,0.0
24/01/2022,05:08:42,0.000,0.0,0.0,0.0
24/01/2022,05:09:52,-0.000,0.0,0.0,0.0
24/01/2022,05:10:50,-0.000,0.0,0.0,0.0
24/01/2022,05:11:51,0.001,0.0,0.0,0.0
24/01/2022,05:12:58,-0.000,0.0,0.0,0.0
24/01/2022,05:13:50,-0.001,0.0,0.0,0.0
24/01/2022,05:14:50,0.000,0.0,0.0,0.0
24/01/2022,05:15:50,-0.000,0.0,0.0,0.0
24/01/2022,05:16:50,-0.001,0.0,0.0,0.0
24/01/2022,05:17:51,-0.000,0.0,0.0,0.0
24/01/2022,05:18:50,-0.000,0.0,0.0,0.0
24/01/2022,05:19:50,-0.000,0.0,0.0,0.0
24/01/2022,05:20:51,-0.001,0.0,0.0,0.0
24/01/2022,05:21:50,-0.000,0.0,0.0,0.0
24/01/2022,05:22:51,-0.000,0.0,0.0,0.0
24/01/2022,05:23:50,-0.001,0.0,0.0,0.0
24/01/2022,05:24:50,-0.000,0.0,0.0,0.0
24/01/2022,05:25:50,-0.000,0.0,0.0,0.0
24/01/2022,05:26:50,0.001,0.0,0.0,0.0
24/01/2022,05:27:59,-0.000,0.0,0.0,0.0
24/01/2022,05:28:50,-0.000,0.0,0.0,0.0
24/01/2022,05:29:50,-0.000,0.0,0.0,0.0
24/01/2022,05:30:59,-0.000,0.0,0.0,0.0
24/01/2022,05:31:50,-0.000,0.0,0.0,0.0
24/01/2022,05:32:51,-0.000,0.0,0.0,0.0
24/01/2022,05:33:50,0.000,0.0,0.0,0.0
24/01/2022,05:34:50,0.001,0.0,0.0,0.0
24/01/2022,05:35:51,-0.000,0.0,0.0,0.0
24/01/2022,05:36:50,0.000,0.0,0.0,0.0
24/01/2022,05:37:50,-0.000,0.0,0.0,0.0
24/01/2022,05:38:50,-0.000,0.0,0.0,0.0
24/01/2022,05:39:50,-0.000,0.0,0.0,0.0
24/01/2022,05:40:50,-0.000,0.0,0.0,0.0
24/01/2022,05:41:50,-0.000,0.0,0.0,0.0
24/01/2022,05:42:50,-0.000,0.0,0.0,0.0
24/01/2022,05:43:50,-0.000,0.0,0.0,0.0
24/01/2022,05:44:51,-0.000,0.0,0.0,0.0
24/01/2022,05:45:50,-0.000,0.0,0.0,0.0
24/01/2022,05:46:50,-0.000,0.0,0.0,0.0
24/01/2022,05:47:51,-0.000,0.0,0.0,0.0
24/01/2022,05:48:59,-0.000,0.0,0.0,0.0
24/01/2022,05:49:50,-0.000,0.0,0.0,0.0
24/01/2022,05:50:50,-0.001,0.0,0.0,0.0
24/01/2022,05:51:51,-0.001,0.0,0.0,0.0
24/01/2022,05:52:51,-0.000,0.0,0.0,0.0
24/01/2022,05:53:51,-0.000,0.0,0.0,0.0
24/01/2022,05:54:50,-0.001,0.0,0.0,0.0
24/01/2022,05:55:50,-0.000,0.0,0.0,0.0
24/01/2022,05:56:51,-0.001,0.0,0.0,0.0
24/01/2022,05:57:50,-0.000,0.0,0.0,0.0
24/01/2022,05:58:59,-0.001,0.0,0.0,0.0
24/01/2022,05:59:59,0.000,0.0,0.0,0.0
24/01/2022,06:00:50,-0.000,0.0,0.0,0.0
24/01/2022,06:01:51,0.001,0.0,0.0,0.0
24/01/2022,06:02:50,-0.000,0.0,0.0,0.0
24/01/2022,06:03:50,-0.000,0.0,0.0,0.0
24/01/2022,06:04:51,0.001,0.0,0.0,0.0
24/01/2022,06:05:50,-0.000,0.0,0.0,0.0
24/01/2022,06:06:59,-0.000,0.0,0.0,0.0
24/01/2022,06:07:50,-0.001,0.0,0.0,0.0
24/01/2022,06:08:51,-0.000,0.0,0.0,0.0
24/01/2022,06:09:51,-0.000,0.0,0.0,0.0
24/01/2022,06:10:51,0.000,0.0,0.0,0.0
24/01/2022,06:11:50,0.001,0.0,0.0,0.0
24/01/2022,06:12:50,-0.001,0.0,0.0,0.0
24/01/2022,06:13:50,-0.000,0.0,0.0,0.0
24/01/2022,06:14:50,-0.000,0.0,0.0,0.0
24/01/2022,06:15:51,-0.000,0.0,0.0,0.0
24/01/2022,06:16:58,-0.001,0.0,0.0,0.0
24/01/2022,06:17:58,-0.000,0.0,0.0,0.0
24/01/2022,06:18:50,0.000,0.0,0.0,0.0
24/01/2022,06:19:51,-0.001,0.0,0.0,0.0
24/01/2022,06:20:50,-0.000,0.0,0.0,0.0
24/01/2022,06:21:50,-0.000,0.0,0.0,0.0
24/01/2022,06:22:51,0.000,0.0,0.0,0.0
24/01/2022,06:23:50,-0.000,0.0,0.0,0.0
24/01/2022,06:24:59,-0.001,0.0,0.0,0.0
24/01/2022,06:25:51,0.000,0.0,0.0,0.0
24/01/2022,06:26:51,-0.000,0.0,0.0,0.0
24/01/2022,06:27:51,-0.000,0.0,0.0,0.0
24/01/2022,06:28:50,0.000,0.0,0.0,0.0
24/01/2022,06:29:51,-0.001,0.0,0.0,0.0
24/01/2022,06:30:50,-0.000,0.0,0.0,0.0
24/01/2022,06:31:59,0.000,0.0,0.0,0.0
24/01/2022,06:32:50,-0.001,0.0,0.0,0.0
24/01/2022,06:33:41,-0.000,0.0,0.0,0.0
24/01/2022,06:34:51,0.001,0.0,0.0,0.0
24/01/2022,06:35:51,0.000,0.0,0.0,0.0
24/01/2022,06:36:50,0.000,0.0,0.0,0.0
24/01/2022,06:37:50,-0.001,0.0,0.0,0.0
24/01/2022,06:38:50,-0.000,0.0,0.0,0.0
24/01/2022,06:39:50,0.000,0.0,0.0,0.0
24/01/2022,06:40:51,-0.000,0.0,0.0,0.0
24/01/2022,06:41:50,0.001,0.0,0.0,0.0
24/01/2022,06:42:50,0.001,0.0,0.0,0.0
24/01/2022,06:43:51,-0.001,0.0,0.0,0.0
24/01/2022,06:44:50,-0.000,0.0,0.0,0.0
24/01/2022,06:45:50,-0.000,0.0,0.0,0.0
24/01/2022,06:46:50,-0.001,0.0,0.0,0.0
24/01/2022,06:47:51,-0.000,0.0,0.0,0.0
24/01/2022,06:48:50,-0.000,0.0,0.0,0.0
24/01/2022,06:49:50,-0.001,0.0,0.0,0.0
24/01/2022,06:50:50,-0.000,0.0,0.0,0.0
24/01/2022,06:51:50,0.001,0.0,0.0,0.0
24/01/2022,06:52:58,-0.000,0.0,0.0,0.0
24/01/2022,06:53:59,-0.000,0.0,0.0,0.0
24/01/2022,06:54:49,0.001,0.0,0.0,0.0
24/01/2022,06:55:50,-0.001,0.0,0.0,0.0
24/01/2022,06:56:50,-0.001,0.0,0.0,0.0
24/01/2022,06:57:51,0.000,0.0,0.0,0.0
24/01/2022,06:58:51,-0.000,0.0,0.0,0.0
24/01/2022,06:59:50,-0.000,0.0,0.0,0.0
24/01/2022,07:00:59,-0.000,0.0,0.0,0.0
24/01/2022,07:01:50,-0.000,0.0,0.0,0.0
24/01/2022,07:02:50,0.000,0.0,0.0,0.0
24/01/2022,07:03:51,-0.000,0.0,0.0,0.0
24/01/2022,07:04:51,-0.000,0.0,0.0,0.0
24/01/2022,07:05:50,0.000,0.0,0.0,0.0
24/01/2022,07:06:50,0.000,0.0,0.0,0.0
24/01/2022,07:07:59,0.000,0.0,0.0,0.0
24/01/2022,07:08:51,0.000,0.0,0.0,0.0
24/01/2022,07:09:51,-0.000,0.0,0.0,0.0
24/01/2022,07:10:58,-0.000,0.0,0.0,0.0
24/01/2022,07:11:51,0.000,0.0,0.0,0.0
24/01/2022,07:12:50,0.001,0.0,0.0,0.0
24/01/2022,07:13:51,0.000,0.0,0.0,0.0
24/01/2022,07:14:50,0.001,0.0,0.0,0.0
24/01/2022,07:15:50,0.002,0.0,0.0,0.0
24/01/2022,07:16:50,-0.001,0.0,0.0,0.0
24/01/2022,07:17:51,-0.000,0.0,0.0,0.0
24/01/2022,07:18:58,0.000,0.0,0.0,0.0
24/01/2022,07:19:50,0.001,0.0,0.0,0.0
24/01/2022,07:20:51,-0.001,0.0,0.0,0.0
24/01/2022,07:21:58,-0.000,0.0,0.0,0.0
24/01/2022,07:22:51,0.000,0.0,0.0,0.0
24/01/2022,07:23:51,0.000,0.0,0.0,0.0
24/01/2022,07:24:51,0.000,0.0,0.0,0.0
24/01/2022,07:25:51,-0.001,0.0,0.0,0.0
24/01/2022,07:26:50,0.000,0.0,0.0,0.0
24/01/2022,07:27:50,0.000,0.0,0.0,0.0
24/01/2022,07:28:50,0.000,0.0,0.0,0.0
24/01/2022,07:29:50,0.000,0.0,0.0,0.0
24/01/2022,07:30:50,-0.001,0.0,0.0,0.0
24/01/2022,07:31:51,0.001,0.0,0.0,0.0
24/01/2022,07:32:51,0.000,0.0,0.0,0.0
24/01/2022,07:33:50,-0.001,0.0,0.0,0.0
24/01/2022,07:34:50,0.000,0.0,0.0,0.0
24/01/2022,07:35:51,0.000,0.0,0.0,0.0
24/01/2022,07:36:50,0.000,0.0,0.0,0.0
24/01/2022,07:37:50,0.000,0.0,0.0,0.0
24/01/2022,07:38:50,-0.001,0.0,0.0,0.0
24/01/2022,07:39:50,0.000,0.0,0.0,0.0
24/01/2022,07:40:51,0.000,0.0,0.0,0.0
24/01/2022,07:41:50,0.000,0.0,0.0,0.0
24/01/2022,07:42:50,0.001,0.0,0.0,0.0
24/01/2022,07:43:58,0.000,0.0,0.0,0.0
24/01/2022,07:44:50,0.001,0.0,0.0,0.0
24/01/2022,07:45:50,0.000,0.0,0.0,0.0
24/01/2022,07:46:50,0.000,0.0,0.0,0.0
24/01/2022,07:47:51,-0.001,0.0,0.0,0.0
24/01/2022,07:48:50,0.000,0.0,0.0,0.0
24/01/2022,07:49:50,0.001,0.0,0.0,0.0
24/01/2022,07:50:51,-0.001,0.0,0.0,0.0
24/01/2022,07:51:50,0.000,0.0,0.0,0.0
24/01/2022,07:52:51,0.001,0.0,0.0,0.0
24/01/2022,07:53:58,0.002,0.0,0.0,0.0
24/01/2022,07:54:50,0.000,0.0,0.0,0.0
24/01/2022,07:55:51,-0.000,0.0,0.0,0.0
24/01/2022,07:56:50,0.001,0.0,0.0,0.0
24/01/2022,07:57:50,0.001,0.0,0.0,0.0
24/01/2022,07:58:50,0.001,0.0,0.0,0.0
24/01/2022,07:59:51,-0.000,0.0,0.0,0.0
24/01/2022,08:00:50,0.001,0.0,0.0,0.0
24/01/2022,08:01:50,0.001,0.0,0.0,0.0
24/01/2022,08:02:51,0.001,0.0,0.0,0.0
24/01/2022,08:03:50,0.002,0.0,0.0,0.0
24/01/2022,08:04:59,0.002,0.0,0.0,0.0
24/01/2022,08:05:51,0.002,0.0,0.0,0.0
24/01/2022,08:06:51,0.002,0.0,0.0,0.0
24/01/2022,08:07:50,0.002,0.0,0.0,0.0
24/01/2022,08:08:50,0.002,0.0,0.0,0.0
24/01/2022,08:09:51,0.002,0.0,0.0,0.0
24/01/2022,08:10:51,0.001,0.0,0.0,0.0
24/01/2022,08:11:51,0.002,0.0,0.0,0.0
24/01/2022,08:12:51,0.002,0.0,0.0,0.0
24/01/2022,08:13:50,0.001,0.0,0.0,0.0
24/01/2022,08:14:51,0.001,0.0,0.0,0.0
24/01/2022,08:15:50,0.002,0.0,0.0,0.0
24/01/2022,08:16:51,0.002,0.0,0.0,0.0
24/01/2022,08:17:51,0.003,0.0,0.0,0.0
24/01/2022,08:18:51,0.002,0.0,0.0,0.0
24/01/2022,08:19:51,0.002,0.0,0.0,0.0
24/01/2022,08:20:50,0.003,0.0,0.0,0.0
24/01/2022,08:21:50,0.003,0.0,0.0,0.0
24/01/2022,08:22:59,0.002,0.0,0.0,0.0
24/01/2022,08:23:49,0.003,0.0,0.0,0.0
24/01/2022,08:24:50,0.003,0.0,0.0,0.0
24/01/2022,08:25:50,0.003,0.0,0.0,0.0
24/01/2022,08:26:51,0.003,0.0,0.0,0.0
24/01/2022,08:27:50,0.003,0.0,0.0,0.0
24/01/2022,08:28:51,0.003,0.0,0.0,0.0
24/01/2022,08:29:51,0.003,0.0,0.0,0.0
24/01/2022,08:30:50,0.003,0.0,0.0,0.0
24/01/2022,08:31:50,0.004,0.0,0.0,0.0
24/01/2022,08:32:59,0.004,0.0,0.0,0.0
24/01/2022,08:33:57,0.004,0.0,0.0,0.0
24/01/2022,08:34:51,0.004,0.0,0.0,0.0
24/01/2022,08:35:51,0.005,0.0,0.0,0.0
24/01/2022,08:36:58,0.005,0.0,0.0,0.0
24/01/2022,08:37:51,0.005,0.0,0.0,0.0
24/01/2022,08:38:51,0.006,0.0,0.0,0.0
24/01/2022,08:39:50,0.006,0.0,0.0,0.0
24/01/2022,08:40:50,0.006,0.0,0.0,0.0
24/01/2022,08:41:50,0.005,0.0,0.0,0.0
24/01/2022,08:42:51,0.006,0.0,0.0,0.0
24/01/2022,08:43:51,0.006,0.0,0.0,0.0
24/01/2022,08:44:50,0.007,0.0,0.0,0.0
24/01/2022,08:45:51,0.007,0.0,0.0,0.0
24/01/2022,08:46:50,0.008,0.0,0.001,0.001
24/01/2022,08:47:51,0.007,0.0,0.001,0.0
24/01/2022,08:48:50,0.008,0.0,0.001,0.0
24/01/2022,08:49:51,0.008,0.0,0.001,0.0
24/01/2022,08:50:51,0.007,0.0,0.001,0.0
24/01/2022,08:51:51,0.010,0.0,0.001,0.0
24/01/2022,08:52:51,0.008,0.0,0.001,0.0
24/01/2022,08:53:50,0.009,0.0,0.002,0.001
24/01/2022,08:55:15,0.010,0.0,0.002,0.0
24/01/2022,08:56:51,0.010,0.0,0.002,0.0
24/01/2022,08:57:51,0.010,0.0,0.002,0.0
24/01/2022,08:58:50,0.010,0.0,0.002,0.0
24/01/2022,08:59:50,0.010,0.0,0.002,0.0
24/01/2022,09:00:50,0.011,0.0,0.003,0.001
24/01/2022,09:01:50,0.011,0.0,0.003,0.0
24/01/2022,09:02:50,0.011,0.0,0.003,0.0
24/01/2022,09:03:51,0.012,0.0,0.003,0.0
24/01/2022,09:04:50,0.012,0.0,0.003,0.0
24/01/2022,09:05:50,0.012,0.0,0.004,0.001
24/01/2022,09:06:50,0.012,0.0,0.004,0.0
24/01/2022,09:07:50,0.012,0.0,0.004,0.0
24/01/2022,09:08:50,0.012,0.0,0.004,0.0
24/01/2022,09:09:56,0.012,0.0,0.004,0.0
24/01/2022,09:12:06,0.013,0.0,0.005,0.001
24/01/2022,09:13:51,0.015,0.0,0.005,0.0
24/01/2022,09:14:51,0.014,0.0,0.006,0.001
24/01/2022,09:16:02,0.014,0.0,0.006,0.0
24/01/2022,09:17:51,0.015,0.0,0.006,0.0
24/01/2022,09:18:51,0.015,0.0,0.006,0.0
24/01/2022,09:19:50,0.014,0.0,0.007,0.001
24/01/2022,09:20:51,0.016,0.0,0.007,0.0
24/01/2022,09:21:51,0.016,0.0,0.007,0.0
24/01/2022,09:22:51,0.016,0.0,0.008,0.001
24/01/2022,09:23:50,0.017,0.0,0.008,0.0
24/01/2022,09:24:51,0.017,0.0,0.008,0.0
24/01/2022,09:25:50,0.017,0.0,0.008,0.0
24/01/2022,09:26:50,0.018,0.0,0.009,0.001
24/01/2022,09:27:51,0.018,0.0,0.009,-0.0
24/01/2022,09:28:51,0.018,0.0,0.009,-0.0
24/01/2022,09:29:51,0.018,0.0,0.01,0.001
24/01/2022,09:30:59,0.019,0.0,0.01,0.0
24/01/2022,09:31:50,0.019,0.0,0.01,0.0
24/01/2022,09:32:51,0.020,0.0,0.01,0.0
24/01/2022,09:33:50,0.020,0.0,0.011,0.001
24/01/2022,09:34:50,0.020,0.0,0.011,-0.0
24/01/2022,09:35:50,0.020,0.0,0.011,-0.0
24/01/2022,09:36:51,0.021,0.0,0.012,0.001
24/01/2022,09:37:50,0.021,0.0,0.012,0.0
24/01/2022,09:38:59,0.022,0.0,0.013,0.001
24/01/2022,09:39:50,0.023,0.0,0.013,-0.0
24/01/2022,09:40:50,0.022,0.0,0.013,-0.0
24/01/2022,09:41:51,0.024,0.0,0.014,0.001
24/01/2022,09:42:50,0.023,0.0,0.014,0.0
24/01/2022,09:43:53,0.023,0.0,0.014,0.0
24/01/2022,09:44:51,0.024,0.0,0.015,0.001
24/01/2022,09:45:51,0.024,0.0,0.015,0.0
24/01/2022,09:46:50,0.024,0.0,0.016,0.001
24/01/2022,09:47:51,0.025,0.0,0.016,0.0
24/01/2022,09:48:51,0.025,0.0,0.016,0.0
24/01/2022,09:49:50,0.026,0.0,0.017,0.001
24/01/2022,09:50:50,0.025,0.0,0.017,0.0
24/01/2022,09:51:59,0.027,0.0,0.018,0.001
24/01/2022,09:53:52,0.027,0.0,0.019,0.001
24/01/2022,09:54:50,0.028,0.0,0.019,0.0
24/01/2022,09:55:50,0.028,0.0,0.02,0.001
24/01/2022,09:56:51,0.029,0.0,0.02,0.0
24/01/2022,09:57:51,0.030,0.0,0.021,0.001
24/01/2022,09:58:50,0.030,0.0,0.021,0.0
24/01/2022,09:59:51,0.031,0.0,0.022,0.001
24/01/2022,10:00:50,0.030,0.0,0.022,-0.0
24/01/2022,10:01:50,0.031,0.0,0.023,0.001
24/01/2022,10:02:52,0.031,0.0,0.023,0.0
24/01/2022,10:03:51,0.030,0.0,0.024,0.001
24/01/2022,10:04:50,0.030,0.0,0.024,0.0
24/01/2022,10:05:51,0.032,0.0,0.025,0.001
24/01/2022,10:06:50,0.032,0.0,0.025,0.0
24/01/2022,10:07:51,0.032,0.0,0.026,0.001
24/01/2022,10:08:51,0.032,0.0,0.026,-0.0
24/01/2022,10:10:00,0.033,0.0,0.027,0.001
24/01/2022,10:10:50,0.033,0.0,0.027,-0.0
24/01/2022,10:11:51,0.033,0.0,0.028,0.001
24/01/2022,10:12:51,0.033,0.0,0.028,0.0
24/01/2022,10:13:51,0.033,0.0,0.029,0.001
24/01/2022,10:14:51,0.033,0.0,0.029,0.0
24/01/2022,10:15:50,0.034,0.0,0.03,0.001
24/01/2022,10:16:51,0.035,0.0,0.031,0.001
24/01/2022,10:17:51,0.035,0.0,0.031,0.0
24/01/2022,10:18:51,0.036,0.0,0.032,0.001
24/01/2022,10:19:50,0.037,0.0,0.032,0.0
24/01/2022,10:21:00,0.038,0.0,0.033,0.001
24/01/2022,10:21:51,0.039,0.0,0.034,0.001
24/01/2022,10:22:51,0.040,0.0,0.034,0.0
24/01/2022,10:23:59,0.040,0.0,0.035,0.001
24/01/2022,10:24:51,0.040,0.0,0.036,0.001
24/01/2022,10:25:51,0.040,0.0,0.036,-0.0
24/01/2022,10:26:51,0.041,0.0,0.037,0.001
24/01/2022,10:27:51,0.041,0.0,0.038,0.001
24/01/2022,10:28:50,0.041,0.0,0.038,0.0